This demonstration page uses our WeatherBlox Daily Observations layout. Learn more.

Left ArrowRight Arrow

Hourly Observations for July 20, 2018

Temp ( °F °C ) Dew Point ( °F °C ) Humidity (%) Winds ( mph kmh ) Pressure ( in mb ) Visibility ( mi km ) Precip ( " mm )
12:59 am 00:59 Partly Cloudy 70 21.1 64 17.8 82 82 E 6 9 30.11 1020 10 16 0.00 0.00
1:59 am 01:59 Partly Cloudy 69 20.6 64 17.8 84 84 ESE 6 9 30.10 1019 10 16 0.00 0.00
2:59 am 02:59 Mostly Clear 70 21.1 65 18.3 84 84 ESE 5 7 30.09 1019 10 16 0.00 0.00
3:59 am 03:59 Mostly Cloudy 69 20.6 65 18.3 87 87 Calm 30.09 1019 10 16 0.00 0.00
4:59 am 04:59 Partly Cloudy 71 21.7 66 18.9 84 84 ESE 3 6 30.09 1019 10 16 0.00 0.00
5:59 am 05:59 Partly Cloudy 68 20 65 18.3 90 90 Calm 30.10 1019 10 16 0.00 0.00
6:59 am 06:59 Partly Cloudy 70 21.1 66 18.9 87 87 ESE 5 7 30.10 1019 9 14 0.00 0.00
7:59 am 07:59 Partly Cloudy 76 24.4 67 19.4 74 74 ESE 5 7 30.11 1020 10 16 0.00 0.00
8:59 am 08:59 Mostly Cloudy 80 26.7 64 17.8 58 58 ESE 8 13 30.12 1020 10 16 0.00 0.00
9:59 am 09:59 Mostly Cloudy 82 27.8 59 15 46 46 ESE 8 13 30.12 1020 10 16 0.00 0.00
10:59 am 10:59 Partly Cloudy 83 28.3 61 16.1 48 48 E 12 19 30.13 1020 10 16 0.00 0.00
11:59 am 11:59 Mostly Cloudy 84 28.9 61 16.1 46 46 ENE 14 22 30.12 1020 10 16 0.00 0.00
12:59 pm 12:59 Mostly Cloudy 84 28.9 62 16.7 48 48 ENE 14 22 30.11 1020 10 16 0.00 0.00
1:59 pm 13:59 Mostly Cloudy 83 28.3 60 15.6 46 46 ENE 14 22 30.10 1019 10 16 0.00 0.00
2:59 pm 14:59 Mostly Cloudy 84 28.9 59 15 43 43 E 13 20 30.09 1019 10 16 0.00 0.00
3:59 pm 15:59 Partly Cloudy 83 28.3 61 16.1 48 48 E 15 24 30.06 1018 10 16 0.00 0.00
4:59 pm 16:59 Partly Cloudy 84 28.9 60 15.6 44 44 ENE 16 26 30.05 1018 10 16 0.00 0.00
5:59 pm 17:59 Partly Cloudy 82 27.8 62 16.7 51 51 E 13 20 30.05 1018 10 16 0.00 0.00
6:59 pm 18:59 Mostly Cloudy 80 26.7 65 18.3 60 60 E 10 17 30.04 1017 10 16 0.00 0.00
7:59 pm 19:59 Mostly Cloudy 79 26.1 67 19.4 67 67 ESE 10 17 30.04 1017 10 16 0.00 0.00
8:59 pm 20:59 Mostly Cloudy 79 26.1 65 18.3 62 62 ESE 9 15 30.04 1017 10 16 0.00 0.00
9:59 pm 21:59 Mostly Cloudy 78 25.6 65 18.3 64 64 ESE 8 13 30.05 1018 10 16 0.00 0.00
10:59 pm 22:59 Cloudy 78 25.6 65 18.3 64 64 SE 10 17 30.03 1017 10 16 0.00 0.00
11:59 pm 23:59 Cloudy 78 25.6 65 18.3 64 64 SE 10 17 30.01 1016 10 16 0.00 0.00

Powered by AerisWeather